Location: Vinland
(47.7731°N, 122.6974°W)
Time: 22:40:52
(UTC+00:00)

S-56A Canister/Altair - Pass Details

Date: 05 April 2023
Orbit: 639 x 2492 km, 38.9° (Epoch: 01 June)

Event Time Altitude Azimuth Distance (km) Brightness Sun altitude
Rises 04:29:42 0° 273° (W) 4,882 12.8 -17.3°
Reaches altitude 10° 04:32:45 10° 267° (W) 4,124 12.1 -17.7°
Maximum altitude 04:43:28 45° 201° (SSW) 2,827 10.2 -19.2°
Enters shadow 04:52:12 23° 146° (SE) 4,072 10.6 -20.4°
